Flag for Syria Weather past 2 weeks in Damascus, Syria

Now
61 °F

Scattered clouds.


Feels Like: 61 °F
Forecast: 42 / 67 °F
Wind: 12 mph from Southwest

Location: Damascus Int. Airport

Current Time: Mar 31, 2015 at 12:14:11 PM

Latest Report: Mar 31, 2015 at 11:00 AM


Visibility: N/A

Pressure: 30.01 "Hg

Humidity: 45%

Dew point: 39 °F

Location of DamascusLocation

Historic Weather in Damascus — Graph

°F

Damascus temperature yesterday

Maximum temperature yesterday: 68 °F (at 2:00 PM)
Minimum temperature yesterday: 48 °F (at 12:00 AM)
Average temperature yesterday: 56 °F

Past Weeks' High & Low Weather Summary

 TemperatureHumidityPressure
High79 °F (Mar 27, 4:00 PM)100% (Mar 17, 6:00 AM)30.18 "Hg (Mar 17, 6:00 AM)
Low30 °F (Mar 23, 6:00 AM)17% (Mar 25, 4:00 PM)29.77 "Hg (Mar 29, 4:00 PM)
Average56 °F54%30.00 "Hg
* Reported Mar 16 10:00 AM — Mar 31 11:00 AM, Damascus, Weather by CustomWeather, © 2015

Note: Actual official high and low records may vary slightly from our data, if they occured in-between our weather recording intervals... More about our weather records

Advertising

Damascus weather history for previous 24 hours

 ConditionsComfort  
Time TempWeatherWind HumidityBarometerVisibility
11:00 AM
Tue, Mar 31
61 °FScattered clouds.12 mph45%30.01 "HgN/A
10:00 AM59 °FScattered clouds.12 mph59%30.04 "HgN/A
9:00 AM55 °FPassing clouds.14 mph67%30.01 "HgN/A
8:00 AM52 °FPassing clouds.12 mph72%30.01 "HgN/A
7:00 AM46 °FPassing clouds.12 mph82%29.98 "HgN/A
6:00 AM46 °FClear.12 mph87%29.98 "Hg10 mi
5:00 AM46 °FClear.12 mph87%29.95 "Hg10 mi
4:00 AM46 °FClear.12 mph82%29.95 "Hg10 mi
3:00 AM46 °FClear.12 mph87%29.95 "Hg10 mi
2:00 AM48 °FClear.12 mph82%29.95 "Hg10 mi
1:00 AM48 °FClear.14 mph82%29.95 "Hg10 mi
12:00 AM48 °FClear.16 mph82%29.95 "Hg10 mi
11:00 PM
Mon, Mar 30
50 °FClear.14 mph71%29.95 "Hg10 mi
10:00 PM52 °FClear.14 mph67%29.95 "Hg10 mi
9:00 PM54 °FPassing clouds.9 mph58%29.95 "HgN/A
8:00 PM55 °FPassing clouds.16 mph55%29.95 "HgN/A
7:00 PM57 °FScattered clouds.21 mph48%29.92 "HgN/A
6:00 PM61 °FScattered clouds.25 mph45%29.92 "HgN/A
5:00 PM64 °FScattered clouds.28 mph40%29.89 "HgN/A
4:00 PM66 °FScattered clouds.25 mph37%29.89 "HgN/A
3:00 PM64 °FPartly sunny.30 mph43%29.89 "HgN/A
2:00 PM68 °FScattered clouds.35 mph35%29.89 "HgN/A
1:00 PM66 °FScattered clouds.28 mph35%29.89 "HgN/A
12:00 PM66 °FScattered clouds.30 mph32%29.92 "HgN/A
Weather by CustomWeather, © 2015

See weather overviewHow to use our weather pages